IST,Max TemperatureF,Mean TemperatureF,Min TemperatureF,Max Dew PointF,MeanDew PointF,Min DewpointF,Max Humidity, Mean Humidity, Min Humidity, Max Sea Level PressureIn, Mean Sea Level PressureIn, Min Sea Level PressureIn, Max VisibilityMiles, Mean VisibilityMiles, Min VisibilityMiles, Max Wind SpeedMPH, Mean Wind SpeedMPH, Max Gust SpeedMPH,PrecipitationIn, CloudCover, Events, WindDirDegrees
2012-10-1,95,86,76,76,73,71,94,69,37,29.83,29.76,29.70,6,4,2,13,4,,0.00,4,,188
2012-10-2,96,86,76,75,73,69,89,64,37,29.86,29.79,29.71,6,4,2,12,4,,0.00,2,,213
2012-10-3,96,86,76,75,70,66,79,59,30,29.86,29.80,29.71,6,4,2,12,6,,0.00,1,,231
2012-10-4,97,87,77,73,70,66,83,59,27,29.86,29.79,29.70,6,4,2,12,6,,0.00,1,,229
2012-10-5,99,87,75,75,72,67,79,60,26,29.86,29.81,29.71,6,4,2,14,6,,0.00,1,,219
2012-10-6,99,88,78,75,74,71,84,62,35,29.89,29.83,29.76,6,4,2,88,7,,0.00,2,,195
2012-10-7,97,88,78,77,72,68,88,62,37,29.92,29.83,29.74,5,4,2,16,5,,0.00,3,Thunderstorm,163
2012-10-8,97,87,77,77,73,70,84,69,33,29.86,29.79,29.71,5,3,2,17,6,,0.00,4,,277
2012-10-9,97,85,73,77,74,70,95,73,44,29.83,29.77,29.68,5,3,1,16,9,,0.00,4,Rain-Hail-Thunderstorm,294
2012-10-10,94,84,73,73,72,70,94,67,37,29.83,29.77,29.68,5,3,1,14,8,,0.02,3,Rain-Thunderstorm,285
2012-10-11,95,86,76,77,73,68,85,65,32,29.86,29.79,29.70,5,3,1,9,3,,0.00,2,,162
2012-10-12,94,86,79,77,76,73,89,76,43,29.86,29.81,29.74,5,3,2,21,3,,0.16,3,Rain,178
2012-10-13,95,87,79,77,75,71,94,73,37,29.89,29.83,29.75,5,3,1,14,3,,0.00,4,,135
2012-10-14,96,87,78,79,75,72,89,73,37,29.92,29.85,29.74,6,4,1,14,3,,0.00,4,Rain,204
2012-10-15,93,84,75,79,74,68,94,78,42,29.95,29.90,29.83,5,3,2,16,9,,0.55,4,Rain-Thunderstorm,229
2012-10-16,87,81,74,75,74,72,94,78,58,29.98,29.91,29.74,4,3,1,9,4,,0.67,4,Rain-Thunderstorm,255
2012-10-17,89,82,74,79,74,72,95,85,57,29.95,29.88,29.61,4,2,1,18,5,,0.08,5,Rain-Thunderstorm,359
2012-10-18,89,81,73,76,74,72,89,81,51,29.92,29.86,29.78,5,3,1,12,5,,0.28,5,,32
2012-10-19,80,78,75,77,74,71,94,89,70,29.92,29.85,29.80,4,2,1,12,6,,0.00,6,Rain,41
2012-10-20,79,76,74,77,74,73,100,92,84,29.92,29.85,29.77,4,3,1,15,9,,0.00,7,Rain,48
2012-10-21,85,80,74,75,75,73,100,88,64,29.92,29.85,29.77,5,3,1,17,6,,0.87,7,Rain-Hail-Thunderstorm,60
2012-10-22,86,80,74,77,74,72,94,85,57,29.95,29.87,29.82,4,3,1,12,5,,0.01,5,Rain,54
2012-10-23,87,80,74,77,75,73,94,89,70,29.90,29.86,29.80,4,2,1,14,5,,0.00,6,Rain,43
2012-10-24,80,76,73,75,74,73,100,92,85,29.93,29.86,29.77,3,2,1,9,4,,0.01,7,Rain,54
2012-10-25,88,80,72,76,74,72,100,79,50,29.92,29.82,29.74,5,3,1,16,3,,0.01,2,Rain,35
2012-10-26,90,83,76,77,75,72,94,76,50,29.86,29.80,29.74,3,2,1,13,5,,0.00,2,,61
2012-10-27,89,82,75,75,73,72,94,73,54,29.86,29.80,29.74,4,2,1,14,7,,0.00,2,,47
2012-10-28,86,80,75,75,73,72,94,80,59,29.86,29.81,29.74,3,2,1,14,8,,0.08,5,,33
2012-10-29,84,80,75,75,73,71,94,79,58,29.86,29.79,29.71,2,2,1,20,6,,0.00,7,,359
2012-10-30,78,76,73,73,72,68,95,88,77,29.83,29.76,29.71,2,1,1,16,5,,0.20,8,Rain,14
2012-10-31,72,72,71,72,71,70,100,97,91,29.77,29.68,29.62,3,1,1,16,10,,2.24,8,Rain,265